• In United Kingdom
  • List of Countries
  • For 7 days
  • Water Temperature
  • Satellite Maps
  • Weather Map
  • Weather Widgets
  • user-avatar
    Login

    Hourly Weather Nadvornaya

    Today, 15 December, Friday

    Time Temperature Precipitation Wind Pressure Humidity
    00:00 +1°C° 0 mm 3 mps 715 mmHg 82%
    01:00 +2°C° 0 mm 2 mps 715 mmHg 83%
    02:00 +2°C° 0 mm 2 mps 714 mmHg 87%
    03:00 +2°C° 0.1 mm 2 mps 714 mmHg 88%
    04:00 +2°C° 0.1 mm 2 mps 714 mmHg 88%
    05:00 +2°C° 0.1 mm 2 mps 714 mmHg 89%
    06:00 +2°C° 0 mm 2 mps 714 mmHg 89%
    07:00 +2°C° 0 mm 2 mps 714 mmHg 89%
    08:00 +3°C° 0 mm 2 mps 714 mmHg 89%
    09:00 +4°C° 0.2 mm 2 mps 713 mmHg 87%
    10:00 +3°C° 0.2 mm 3 mps 713 mmHg 85%
    11:00 +4°C° 0.2 mm 3 mps 713 mmHg 83%
    12:00 +5°C° 0.9 mm 3 mps 712 mmHg 83%
    13:00 +5°C° 0.9 mm 3 mps 712 mmHg 83%
    14:00 +5°C° 0.9 mm 4 mps 712 mmHg 83%
    15:00 +5°C° 0.3 mm 4 mps 712 mmHg 83%
    16:00 +6°C° 0.3 mm 4 mps 712 mmHg 83%
    17:00 +6°C° 0.3 mm 4 mps 712 mmHg 84%
    18:00 +5°C° 0.2 mm 4 mps 712 mmHg 84%
    19:00 +5°C° 0.2 mm 4 mps 712 mmHg 85%
    20:00 +5°C° 0.2 mm 3 mps 713 mmHg 85%
    21:00 +5°C° 0.1 mm 3 mps 713 mmHg 87%
    22:00 +5°C° 0.1 mm 2 mps 713 mmHg 88%
    23:00 +5°C° 0.1 mm 2 mps 713 mmHg 90%

    Tomorrow, 16 December, Saturday

    Time Temperature Precipitation Wind Pressure Humidity
    00:00 +6°C° 0.6 mm 1 mps 712 mmHg 91%
    01:00 +6°C° 0.6 mm 1 mps 712 mmHg 93%
    02:00 +6°C° 0.6 mm 1 mps 711 mmHg 94%
    03:00 +5°C° 1.8 mm 1 mps 710 mmHg 95%
    04:00 +5°C° 1.8 mm 1 mps 710 mmHg 96%
    05:00 +5°C° 1.8 mm 1 mps 709 mmHg 97%
    06:00 +5°C° 1.5 mm 1 mps 708 mmHg 96%
    07:00 +5°C° 1.5 mm 1 mps 708 mmHg 96%
    08:00 +4°C° 1.5 mm 2 mps 708 mmHg 96%
    09:00 +4°C° 0.7 mm 2 mps 708 mmHg 94%
    10:00 +4°C° 0.7 mm 2 mps 708 mmHg 93%
    11:00 +3°C° 0.7 mm 3 mps 708 mmHg 92%
    12:00 +3°C° 0.4 mm 3 mps 709 mmHg 91%
    13:00 +3°C° 0.4 mm 3 mps 709 mmHg 91%
    14:00 +3°C° 0.4 mm 3 mps 710 mmHg 90%
    15:00 +2°C° 0.2 mm 3 mps 711 mmHg 91%
    16:00 +2°C° 0.2 mm 3 mps 712 mmHg 92%
    17:00 +1°C° 0.2 mm 3 mps 712 mmHg 92%
    18:00 +1°C° 0.2 mm 3 mps 713 mmHg 92%
    19:00 0°C° 0.2 mm 3 mps 714 mmHg 92%
    20:00 0°C° 0.2 mm 3 mps 715 mmHg 92%
    21:00 +1°C° 0.2 mm 2 mps 716 mmHg 92%
    22:00 +1°C° 0.2 mm 2 mps 717 mmHg 92%
    23:00 +1°C° 0.2 mm 2 mps 717 mmHg 92%

    Day after tomorrow, 17 December, Sunday

    Time Temperature Precipitation Wind Pressure Humidity
    00:00 +1°C° 0.1 mm 2 mps 718 mmHg 92%
    01:00 -1°C° 0.1 mm 2 mps 718 mmHg 92%
    02:00 -1°C° 0.1 mm 2 mps 719 mmHg 92%
    03:00 -1°C° 0.1 mm 2 mps 719 mmHg 92%
    04:00 -2°C° 0.1 mm 2 mps 719 mmHg 92%
    05:00 -2°C° 0.1 mm 2 mps 719 mmHg 92%
    06:00 -2°C° 0 mm 2 mps 719 mmHg 92%
    07:00 -3°C° 0 mm 2 mps 720 mmHg 92%
    08:00 -3°C° 0 mm 2 mps 720 mmHg 91%
    09:00 -2°C° 0 mm 2 mps 721 mmHg 87%
    10:00 -2°C° 0 mm 2 mps 721 mmHg 83%
    11:00 -1°C° 0 mm 2 mps 721 mmHg 79%
    12:00 -1°C° 0 mm 2 mps 722 mmHg 79%
    13:00 +1°C° 0 mm 2 mps 722 mmHg 78%
    14:00 +1°C° 0 mm 2 mps 722 mmHg 77%
    15:00 -1°C° 0 mm 2 mps 722 mmHg 80%
    16:00 -2°C° 0 mm 2 mps 722 mmHg 84%
    17:00 0°C° 0 mm 1 mps 723 mmHg 88%
    18:00 -1°C° 0 mm 1 mps 723 mmHg 88%
    19:00 -1°C° 0 mm 1 mps 723 mmHg 89%
    20:00 -1°C° 0 mm 1 mps 724 mmHg 89%
    21:00 -1°C° 0 mm 1 mps 724 mmHg 89%
    22:00 -2°C° 0 mm 1 mps 724 mmHg 88%
    23:00 -2°C° 0 mm 1 mps 725 mmHg 88%

    18 December, Monday

    Time Temperature Precipitation Wind Pressure Humidity
    00:00 -2°C° 0 mm 1 mps 725 mmHg 87%
    01:00 -2°C° 0 mm 1 mps 725 mmHg 87%
    02:00 -2°C° 0 mm 1 mps 725 mmHg 86%
    03:00 -2°C° 0 mm 1 mps 725 mmHg 86%
    04:00 -2°C° 0 mm 1 mps 725 mmHg 86%
    05:00 -2°C° 0 mm 1 mps 725 mmHg 86%
    06:00 -2°C° 0 mm 1 mps 725 mmHg 86%
    07:00 -2°C° 0 mm 1 mps 725 mmHg 86%
    08:00 -2°C° 0 mm 1 mps 725 mmHg 87%
    09:00 -2°C° 0.1 mm 1 mps 726 mmHg 84%
    10:00 -3°C° 0.1 mm 2 mps 726 mmHg 81%
    11:00 -2°C° 0.1 mm 2 mps 726 mmHg 78%
    12:00 -2°C° 0.1 mm 2 mps 726 mmHg 76%
    13:00 -2°C° 0.1 mm 2 mps 726 mmHg 73%
    14:00 -1°C° 0.1 mm 2 mps 726 mmHg 71%
    15:00 -2°C° 0.1 mm 2 mps 726 mmHg 75%
    16:00 -1°C° 0.1 mm 1 mps 726 mmHg 79%
    17:00 -1°C° 0.1 mm 1 mps 726 mmHg 84%
    18:00 -2°C° 0 mm 1 mps 726 mmHg 85%
    19:00 -2°C° 0 mm 1 mps 727 mmHg 86%
    20:00 -2°C° 0 mm 1 mps 727 mmHg 86%
    21:00 -3°C° 0 mm 1 mps 727 mmHg 86%
    22:00 -3°C° 0 mm 1 mps 727 mmHg 86%
    23:00 -3°C° 0 mm 1 mps 728 mmHg 85%

    19 December, Tuesday

    Time Temperature Precipitation Wind Pressure Humidity
    00:00 -3°C° 0.1 mm 1 mps 728 mmHg 85%
    01:00 -3°C° 0.1 mm 1 mps 728 mmHg 85%
    02:00 -2°C° 0.1 mm 1 mps 728 mmHg 85%
    03:00 -2°C° 0.1 mm 1 mps 728 mmHg 85%
    04:00 -2°C° 0.1 mm 1 mps 729 mmHg 85%
    05:00 -2°C° 0.1 mm 1 mps 729 mmHg 86%
    06:00 -2°C° 0.1 mm 1 mps 729 mmHg 87%
    07:00 -2°C° 0.1 mm 1 mps 730 mmHg 89%
    08:00 -2°C° 0.1 mm 1 mps 730 mmHg 90%
    09:00 -2°C° 0.1 mm 1 mps 730 mmHg 88%
    10:00 -3°C° 0.1 mm 2 mps 731 mmHg 85%
    11:00 -3°C° 0.1 mm 2 mps 731 mmHg 83%
    12:00 -3°C° 0 mm 2 mps 732 mmHg 81%
    13:00 -3°C° 0 mm 2 mps 732 mmHg 79%
    14:00 -2°C° 0 mm 2 mps 732 mmHg 77%
    15:00 -3°C° 0 mm 2 mps 732 mmHg 82%
    16:00 -4°C° 0 mm 2 mps 732 mmHg 86%
    17:00 -5°C° 0 mm 2 mps 732 mmHg 90%
    18:00 -5°C° 0 mm 2 mps 733 mmHg 90%
    19:00 -6°C° 0 mm 2 mps 733 mmHg 90%
    20:00 -6°C° 0 mm 2 mps 733 mmHg 90%
    21:00 -6°C° 0 mm 2 mps 733 mmHg 89%
    22:00 -6°C° 0 mm 2 mps 734 mmHg 89%
    23:00 -6°C° 0 mm 2 mps 734 mmHg 88%

    20 December, Wednesday

    Time Temperature Precipitation Wind Pressure Humidity
    00:00 -7°C° 0 mm 2 mps 733 mmHg 88%
    01:00 -7°C° 0 mm 2 mps 733 mmHg 87%
    02:00 -7°C° 0 mm 2 mps 733 mmHg 87%
    03:00 -7°C° 0 mm 2 mps 733 mmHg 85%
    04:00 -7°C° 0 mm 2 mps 733 mmHg 83%
    05:00 -7°C° 0 mm 2 mps 732 mmHg 82%
    06:00 -7°C° 0 mm 2 mps 732 mmHg 81%
    07:00 -6°C° 0 mm 1 mps 732 mmHg 80%
    08:00 -6°C° 0 mm 1 mps 732 mmHg 79%
    09:00 -4°C° 0 mm 1 mps 732 mmHg 77%
    10:00 -3°C° 0 mm 1 mps 732 mmHg 74%
    11:00 -4°C° 0 mm 2 mps 732 mmHg 72%
    12:00 -3°C° 0 mm 2 mps 732 mmHg 71%
    13:00 -3°C° 0 mm 2 mps 732 mmHg 71%
    14:00 -2°C° 0 mm 2 mps 731 mmHg 70%
    15:00 -3°C° 0 mm 2 mps 731 mmHg 74%
    16:00 -1°C° 0 mm 1 mps 731 mmHg 78%
    17:00 -2°C° 0 mm 1 mps 731 mmHg 82%
    18:00 -2°C° 0 mm 1 mps 732 mmHg 83%
    19:00 -2°C° 0 mm 1 mps 732 mmHg 84%
    20:00 -2°C° 0 mm 1 mps 732 mmHg 84%
    21:00 -2°C° 0 mm 1 mps 732 mmHg 84%
    22:00 -2°C° 0 mm 1 mps 732 mmHg 85%
    23:00 -2°C° 0 mm 1 mps 732 mmHg 85%
    Show more